Location: Unspecified
(40.7945°N, 0.0000°E)
Time: 06:46:52
(UTC+00:00)

Tiros 1 despin weight - Pass Details

Date: 27 January 2021
Orbit: 593 x 642 km, 48.2° (Epoch: 06 March)

Event Time Altitude Azimuth Distance (km) Brightness Sun altitude
Rises 17:43:39 0° 299° (WNW) 2,867 ? -6.5°
Reaches altitude 10° 17:46:00 10° 304° (WNW) 1,953 ? -6.9°
Maximum altitude 17:50:24 55° 22° (NNE) 723 ? -7.7°
Drops below altitude 10° 17:54:44 10° 101° (E) 1,926 ? -8.5°
Enters shadow 17:55:16 - 102° (ESE) 2,126 ? -8.6°
